Wind_Speed
3 4 5 2 5 5 6 7 1 7 6 4 7 4 11 12 10 5 9 7 16 16 15 13 13 12 13 12 13 14 13 11 10 11 10 9 8 8 7 8 7 7 7 7 7 7 7 6 6
3 3 2 3 5 6 7 5 5 8 7 10 9 7 8 14 14 12 6 12 16 16 16 15 14 13 13 14 13 12 12 12 11 10 10 9 8 8 7 7 7 8 8 8 8 7 7 6 6
2 1 5 3 2 5 7 3 6 9 11 7 6 7 6 5 9 6 10 17 16 16 15 15 13 11 10 10 11 11 11 10 9 9 9 9 8 7 7 7 7 7 6 7 7 7 6 6 5
1 2 4 4 5 7 3 3 3 9 8 5 7 10 9 7 3 7 15 18 18 16 14 12 10 8 6 7 7 7 8 9 10 10 8 7 6 6 6 5 5 6 7 8 9 9 8 7 5
1 4 3 3 6 3 2 2 5 6 6 7 2 9 8 7 10 15 17 16 17 15 15 13 11 9 7 5 5 6 8 9 10 9 8 7 6 4 4 4 4 5 5 5 5 6 7 8 9
5 3 4 4 6 5 4 2 4 4 4 6 6 9 7 6 11 13 16 17 15 15 15 15 12 9 8 7 7 7 8 7 8 8 7 6 4 4 3 1 2 3 4 4 3 3 5 6 8
3 1 4 4 6 8 5 3 2 5 5 6 5 5 8 9 14 16 18 17 15 14 14 14 12 10 9 9 9 9 9 7 5 4 4 3 2 2 2 3 3 5 6 8 8 9 8 7 7
1 3 6 1 3 9 7 3 4 1 7 6 3 5 10 18 19 16 17 16 15 12 10 10 12 10 11 11 11 8 5 5 4 4 3 0 2 4 6 7 7 7 8 9 8 8 9 9 9
3 4 4 4 3 6 6 0 5 3 9 8 6 6 22 25 21 20 18 17 15 12 11 10 10 12 9 9 9 9 4 6 3 2 3 1 0 2 3 5 6 8 10 10 10 10 11 10 11
4 4 3 4 4 3 2 2 3 3 11 12 17 21 26 24 22 19 18 17 15 10 11 12 11 10 10 9 9 5 8 7 6 6 5 1 3 4 4 3 4 8 9 9 9 10 10 10 10
2 3 3 4 3 4 0 1 1 3 3 6 18 26 26 23 18 19 18 15 6 3 6 7 8 10 11 10 10 8 7 3 2 1 2 3 2 4 4 3 5 7 6 8 9 11 12 13 13
5 2 2 3 3 5 4 1 15 14 9 5 22 26 26 21 19 22 17 13 4 1 3 4 6 10 13 12 11 9 8 5 2 1 3 2 5 6 7 8 9 11 12 13 14 15 16 16 16
3 1 2 3 6 5 3 5 11 17 13 17 23 24 22 19 19 21 13 15 7 3 3 5 9 7 8 7 7 9 4 2 4 5 8 10 12 13 12 13 13 14 15 17 18 17 17 17 17
2 4 2 3 3 1 8 6 2 10 12 18 21 21 19 19 16 15 14 17 15 9 5 5 7 5 3 5 8 10 13 13 13 14 14 13 13 13 13 14 15 16 18 18 18 18 17 17 16
2 5 9 7 4 6 16 10 9 8 10 15 18 20 21 18 15 13 13 12 11 8 7 5 8 12 14 18 18 17 16 15 15 14 13 12 12 12 14 15 16 18 18 18 18 17 15 13 13
4 6 10 8 4 2 9 8 8 8 12 15 17 20 21 18 16 14 12 12 13 14 14 15 17 16 17 17 17 16 15 14 13 11 11 11 12 14 16 16 17 17 16 16 16 17 15 15 15
5 4 3 6 10 3 6 10 5 3 12 15 17 18 22 21 17 14 15 16 14 16 17 16 16 16 16 16 14 12 11 10 10 10 11 12 15 16 16 16 18 17 16 17 16 15 16 15 16
5 7 6 2 6 7 12 10 6 3 11 14 15 18 19 20 18 18 19 17 17 17 17 16 16 14 12 12 11 11 10 10 10 11 12 14 15 16 17 18 21 17 15 15 16 15 15 15 17
3 4 3 6 3 2 7 9 8 7 10 14 15 17 18 20 18 18 18 19 20 18 17 15 15 13 10 10 10 10 10 10 10 11 12 13 15 17 19 17 17 15 14 16 16 15 14 15 18
5 6 5 5 4 4 6 7 9 7 4 8 14 19 21 20 18 18 18 19 18 18 17 15 12 10 9 8 8 7 8 8 8 8 10 12 14 16 19 19 18 19 14 16 18 19 17 15 18
7 8 5 1 5 1 8 8 10 9 8 10 17 18 18 20 21 19 18 16 16 17 15 13 9 7 5 5 6 6 6 7 6 6 9 11 13 16 20 21 21 18 17 18 19 21 19 17 16
8 6 4 7 7 3 8 2 11 12 11 16 17 18 20 22 19 18 17 16 14 13 12 10 7 5 4 4 3 5 4 4 3 6 9 11 14 18 20 21 18 17 18 20 21 21 20 18 15
1 3 6 5 7 6 11 7 9 12 14 16 20 20 22 21 20 18 16 14 13 13 12 10 8 5 4 3 3 4 4 3 1 4 6 10 14 18 20 17 15 16 17 19 20 21 21 16 13
7 7 5 4 5 9 4 7 8 8 13 17 22 22 24 23 19 16 14 15 14 13 12 10 8 6 5 4 3 4 2 3 3 6 6 10 14 17 15 13 14 16 17 19 20 20 19 17 14
10 9 5 7 5 2 4 5 5 3 5 18 25 28 27 24 19 16 15 16 16 15 14 12 10 8 7 6 6 7 7 6 5 6 9 10 12 12 11 12 13 15 18 19 20 18 15 14 13
16 12 5 5 3 3 4 5 5 2 7 13 20 26 26 23 20 17 17 16 16 16 15 14 11 10 10 10 10 9 9 7 8 9 10 11 11 10 11 13 15 16 18 19 19 15 13 14 13
9 11 1 2 1 4 2 2 6 4 7 12 20 24 25 23 21 18 17 18 17 17 18 17 14 13 12 12 10 10 10 9 10 10 12 11 10 11 12 14 15 16 17 18 17 14 13 14 14
10 11 6 5 4 4 4 5 2 8 11 13 20 26 26 24 21 18 17 18 17 17 18 17 15 14 12 12 11 11 11 11 11 12 11 10 10 11 13 15 16 17 17 18 16 13 12 14 14
6 7 0 1 1 2 2 1 2 1 10 15 23 26 27 25 22 18 15 16 18 20 17 17 17 15 12 13 12 11 12 12 11 11 10 10 11 12 13 15 15 16 17 17 15 14 14 16 15
2 3 7 3 5 1 2 6 3 1 4 13 17 21 24 25 23 20 19 20 21 20 19 19 18 15 12 13 12 12 12 11 10 10 9 10 11 12 13 14 15 16 16 16 15 15 16 16 17
Wind_Direction
338 333 327 280 235 242 119 108 55 133 136 77 99 33 50 36 12 38 133 132 140 150 146 129 120 120 126 129 133 138 142 141 135 131 125 121 111 103 96 88 72 69 71 71 69 68 66 68 69
331 324 278 261 255 189 109 112 146 78 103 122 111 110 59 72 47 92 100 129 140 150 144 139 133 130 126 126 128 131 133 132 130 126 123 115 107 93 84 70 64 53 51 55 53 49 46 45 49
320 337 259 269 238 73 106 135 109 108 139 152 141 68 52 33 59 112 129 139 141 143 151 147 140 135 130 130 131 134 136 133 122 102 87 84 82 81 70 63 57 55 51 46 48 46 44 40 34
11 235 226 268 104 90 42 72 131 135 142 151 131 86 84 39 113 126 134 142 147 154 157 153 145 140 136 129 129 127 123 117 109 110 112 109 101 90 82 68 53 43 31 21 12 6 3 2 359
249 232 193 154 113 96 82 21 198 172 131 142 188 111 89 51 95 121 133 143 149 149 153 154 153 151 137 121 110 107 108 115 122 126 125 114 106 91 68 50 36 23 17 18 7 354 346 338 330
202 261 208 129 108 106 70 46 164 208 133 147 117 114 85 101 116 124 130 139 148 152 156 161 162 151 136 122 126 132 134 135 139 138 126 114 111 97 71 33 348 331 325 316 310 305 306 309 310
347 259 86 122 115 101 59 57 202 162 125 78 114 104 115 120 130 129 137 150 155 160 162 159 159 151 149 149 154 158 158 159 149 127 112 135 140 139 227 242 239 259 282 296 310 316 306 293 284
338 270 167 161 127 76 61 92 83 345 82 112 77 131 145 142 131 129 132 138 142 148 155 165 170 162 169 163 168 159 134 164 155 150 129 176 331 321 313 307 302 306 321 318 312 311 316 308 292
316 238 165 129 208 89 69 74 72 94 122 74 43 80 133 137 133 127 117 119 129 141 151 163 179 174 179 171 159 145 225 192 163 99 91 104 124 322 309 306 317 325 322 322 319 312 312 314 312
305 289 67 40 47 53 39 27 29 219 137 93 86 111 127 132 132 129 127 137 136 143 153 158 175 174 172 164 164 141 248 209 171 161 148 67 343 333 341 335 327 307 321 323 324 327 327 325 329
19 2 129 111 32 348 279 169 61 297 172 64 144 135 136 136 133 122 124 101 76 183 134 166 176 170 170 183 169 187 203 207 193 72 351 15 3 344 341 23 346 26 17 19 8 359 354 347 339
247 158 201 32 345 308 288 43 67 48 20 106 139 141 143 141 137 137 119 121 196 98 108 197 205 203 201 208 193 206 204 198 212 310 14 35 90 90 87 73 60 47 38 27 22 13 6 359 353
248 160 267 333 307 294 260 61 89 60 78 115 133 139 141 142 137 137 138 166 197 300 360 290 237 162 159 185 183 199 196 126 81 93 87 82 74 67 58 48 39 30 21 12 7 2 357 352 350
3 282 278 342 352 133 184 115 177 72 111 119 130 136 137 133 140 143 143 161 191 217 207 205 154 136 57 111 122 110 105 98 93 87 78 70 63 53 43 32 25 17 14 8 6 2 0 357 356
276 228 151 48 103 112 140 79 71 118 123 122 129 125 126 129 145 151 162 178 192 162 149 157 123 111 116 113 110 106 103 97 88 81 73 63 53 41 31 23 15 10 6 3 360 1 1 4 4
220 230 190 58 17 100 209 103 59 149 132 127 125 124 128 129 147 155 147 152 148 149 135 127 117 117 114 110 106 102 97 91 86 77 66 52 40 30 22 15 12 11 9 7 6 3 6 4 3
195 161 194 133 30 172 264 115 87 171 141 135 134 130 136 135 122 121 120 125 123 123 123 114 113 111 110 103 101 103 102 97 86 71 52 39 30 24 20 17 12 12 14 12 12 9 6 359 358
161 160 164 117 47 84 92 109 87 132 148 146 138 136 131 124 127 132 127 129 127 126 123 118 116 111 113 109 101 96 92 84 75 59 42 30 24 22 20 16 15 21 19 16 14 10 3 358 354
146 179 156 113 72 56 93 119 110 106 137 141 138 131 129 132 136 137 136 137 133 133 124 123 120 120 113 103 100 93 88 80 67 46 30 24 24 19 19 17 14 19 13 14 11 10 6 1 356
197 195 174 110 97 263 159 129 129 149 108 141 143 146 145 143 143 144 143 139 138 132 133 128 121 114 114 103 100 98 84 71 53 39 31 25 14 12 8 7 7 6 12 7 7 9 6 3 359
206 226 166 279 148 154 191 168 162 154 154 156 170 156 156 152 151 149 148 149 144 144 144 137 126 123 128 114 93 81 71 67 64 39 18 13 9 3 359 355 353 358 4 3 2 1 1 359 357
207 202 204 183 220 247 208 281 169 166 168 171 168 169 161 155 156 152 152 153 152 154 153 143 155 172 144 127 130 124 122 112 78 35 8 356 354 350 347 346 351 359 1 359 358 353 355 353 353
71 166 205 206 237 251 198 253 111 168 178 179 179 176 168 166 163 161 159 162 159 166 161 168 186 177 186 185 178 155 149 147 69 353 340 339 338 340 340 346 353 354 354 353 350 348 347 352 350
144 160 167 212 250 246 262 242 156 179 208 184 185 180 176 173 170 166 167 167 169 167 172 197 195 198 209 212 206 196 204 254 287 322 337 330 330 333 340 345 345 347 349 348 346 343 341 341 345
198 194 215 214 206 273 132 224 35 162 214 194 187 183 182 182 178 176 175 176 179 181 193 210 197 213 226 232 229 228 231 244 260 285 302 312 322 328 335 340 343 345 345 344 343 341 343 341 342
206 207 232 254 217 126 160 228 116 314 196 191 189 186 184 186 190 193 192 192 191 191 198 206 193 207 232 235 232 232 238 255 270 288 304 318 325 330 337 340 342 343 342 342 341 340 340 338 336
172 212 342 186 87 273 215 172 168 146 163 184 184 188 192 196 197 196 197 198 197 197 207 208 207 213 231 237 236 243 251 264 283 305 314 318 321 328 333 336 340 341 340 340 339 334 333 333 329
240 150 181 218 218 232 156 258 298 187 191 189 194 198 200 200 201 202 205 206 200 198 206 207 208 217 231 239 241 247 259 275 291 302 303 306 314 320 330 337 337 338 339 338 338 331 327 327 327
158 177 123 98 310 259 271 263 66 198 198 204 208 206 205 203 205 203 198 194 191 198 199 205 212 218 228 239 241 252 265 279 289 292 294 303 309 321 328 329 331 333 334 334 333 328 326 324 323
321 176 205 206 173 215 291 273 118 230 246 212 218 213 211 209 205 201 197 199 197 195 197 207 212 212 228 237 242 255 269 279 282 286 292 299 307 318 320 323 328 331 331 330 328 326 323 323 320
Height
1537 1536 1536 1536 1531 1520 1526 1528 1525 1527 1531 1536 1538 1537 1540 1543 1544 1552 1562 1561 1563 1564 1567 1569 1571 1573 1573 1574 1575 1575 1576 1577 1578 1577 1578 1578 1578 1577 1577 1577 1577 1576 1576 1576 1576 1576 1576 1576 1576
1537 1537 1537 1533 1523 1522 1528 1525 1524 1529 1536 1540 1541 1540 1542 1549 1555 1560 1564 1564 1566 1567 1569 1570 1571 1573 1575 1575 1576 1576 1577 1578 1578 1579 1579 1579 1579 1579 1580 1580 1579 1580 1579 1578 1577 1577 1577 1577 1576
1537 1537 1535 1522 1520 1523 1526 1526 1526 1535 1538 1538 1540 1542 1546 1556 1558 1560 1562 1565 1568 1569 1571 1571 1573 1575 1575 1575 1576 1577 1577 1578 1579 1581 1582 1582 1582 1581 1582 1582 1582 1581 1580 1580 1578 1578 1578 1577 1577
1537 1538 1535 1522 1527 1529 1527 1528 1531 1536 1539 1539 1539 1547 1554 1559 1560 1561 1563 1565 1568 1570 1572 1574 1575 1577 1579 1579 1579 1579 1580 1580 1580 1580 1581 1582 1582 1583 1583 1583 1583 1583 1582 1582 1581 1579 1579 1578 1578
1536 1533 1525 1527 1530 1529 1530 1532 1532 1532 1536 1539 1540 1550 1556 1561 1562 1563 1566 1569 1570 1572 1574 1576 1578 1578 1580 1581 1583 1583 1583 1582 1581 1581 1580 1582 1582 1583 1583 1583 1583 1583 1583 1581 1581 1580 1579 1578 1578
1532 1531 1525 1529 1531 1531 1533 1535 1535 1535 1537 1542 1542 1549 1561 1563 1565 1567 1568 1570 1574 1574 1575 1577 1579 1581 1581 1582 1583 1584 1583 1583 1582 1581 1581 1582 1582 1582 1583 1582 1582 1581 1581 1581 1579 1578 1577 1576 1576
1532 1524 1531 1530 1533 1532 1534 1537 1535 1535 1537 1542 1545 1547 1561 1564 1566 1569 1568 1571 1572 1575 1576 1578 1580 1582 1581 1581 1582 1583 1583 1584 1584 1583 1583 1582 1581 1581 1580 1580 1579 1579 1579 1578 1578 1577 1576 1575 1574
1536 1530 1533 1532 1532 1539 1538 1538 1539 1538 1542 1547 1548 1546 1560 1565 1568 1571 1570 1573 1574 1576 1578 1579 1581 1582 1582 1581 1581 1583 1584 1585 1584 1583 1582 1582 1581 1581 1580 1580 1579 1579 1579 1578 1575 1575 1575 1574 1572
1538 1529 1532 1535 1534 1537 1538 1536 1540 1542 1544 1549 1552 1553 1557 1564 1568 1570 1574 1575 1577 1576 1577 1580 1581 1581 1582 1582 1584 1585 1586 1586 1585 1583 1582 1582 1580 1579 1577 1577 1577 1578 1578 1577 1575 1575 1574 1573 1571
1536 1530 1535 1540 1541 1539 1540 1540 1541 1540 1545 1552 1555 1558 1562 1565 1568 1572 1572 1574 1575 1575 1576 1580 1580 1582 1583 1584 1586 1586 1587 1585 1582 1580 1580 1580 1580 1579 1579 1577 1576 1575 1576 1576 1574 1574 1573 1572 1571
1539 1534 1539 1541 1543 1544 1541 1540 1542 1539 1536 1546 1555 1559 1563 1567 1570 1571 1573 1574 1582 1579 1580 1581 1581 1582 1582 1583 1584 1585 1585 1585 1583 1582 1581 1582 1580 1580 1578 1578 1576 1576 1576 1576 1575 1574 1573 1571 1570
1539 1542 1542 1542 1544 1544 1541 1541 1547 1549 1552 1551 1556 1560 1564 1567 1569 1570 1572 1575 1578 1579 1579 1581 1582 1582 1582 1582 1583 1584 1583 1583 1581 1582 1581 1581 1581 1579 1578 1579 1576 1576 1575 1576 1574 1574 1572 1570 1568
1539 1542 1543 1544 1544 1544 1545 1545 1548 1556 1556 1557 1560 1564 1567 1569 1572 1574 1574 1576 1580 1579 1581 1582 1581 1580 1580 1582 1582 1582 1584 1585 1582 1582 1582 1582 1581 1580 1579 1578 1576 1576 1575 1574 1573 1573 1571 1569 1566
1545 1543 1542 1543 1542 1542 1541 1548 1546 1563 1561 1562 1565 1567 1571 1574 1575 1575 1577 1578 1579 1580 1580 1581 1582 1582 1582 1582 1583 1582 1583 1586 1584 1584 1584 1583 1583 1582 1581 1579 1578 1577 1575 1574 1574 1572 1570 1568 1566
1545 1540 1539 1540 1540 1543 1542 1547 1561 1565 1564 1565 1568 1571 1573 1574 1576 1579 1580 1580 1580 1581 1583 1583 1583 1584 1584 1583 1585 1584 1585 1586 1586 1586 1586 1585 1584 1583 1581 1580 1579 1577 1576 1575 1573 1571 1570 1569 1567
1540 1539 1535 1540 1538 1541 1542 1550 1563 1566 1566 1568 1571 1572 1573 1575 1577 1578 1580 1581 1580 1583 1583 1585 1584 1586 1587 1586 1586 1587 1587 1586 1588 1588 1587 1586 1584 1583 1582 1581 1581 1579 1577 1575 1573 1571 1570 1568 1566
1537 1533 1536 1539 1540 1537 1535 1549 1563 1565 1567 1570 1571 1572 1574 1576 1579 1581 1583 1584 1587 1587 1586 1586 1587 1588 1589 1588 1588 1589 1589 1589 1589 1590 1588 1586 1585 1583 1584 1584 1581 1578 1576 1574 1573 1572 1569 1567 1564
1538 1539 1538 1539 1541 1537 1543 1555 1564 1565 1568 1570 1574 1575 1577 1578 1582 1582 1582 1586 1587 1587 1588 1589 1590 1591 1592 1590 1589 1590 1590 1590 1590 1589 1589 1587 1586 1586 1585 1583 1580 1579 1577 1576 1573 1571 1569 1567 1563
1538 1538 1538 1540 1545 1542 1548 1549 1563 1566 1568 1570 1573 1576 1578 1579 1582 1583 1584 1585 1586 1588 1589 1590 1591 1593 1593 1592 1592 1591 1591 1591 1590 1590 1589 1588 1588 1586 1585 1584 1582 1581 1578 1575 1572 1571 1569 1567 1562
1540 1538 1539 1545 1547 1543 1547 1552 1558 1566 1569 1571 1572 1574 1577 1580 1584 1584 1586 1587 1587 1587 1589 1591 1592 1593 1594 1593 1593 1593 1592 1592 1592 1592 1591 1590 1588 1587 1585 1584 1581 1579 1578 1575 1572 1569 1566 1565 1562
1538 1537 1538 1539 1545 1543 1544 1548 1554 1565 1568 1571 1572 1573 1576 1578 1582 1585 1585 1588 1587 1587 1589 1591 1593 1593 1595 1595 1594 1594 1594 1594 1595 1594 1592 1590 1589 1587 1585 1582 1580 1578 1576 1574 1571 1568 1565 1563 1562
1539 1534 1537 1541 1543 1540 1539 1539 1543 1555 1562 1567 1569 1572 1574 1577 1582 1584 1585 1587 1589 1589 1590 1591 1593 1594 1594 1595 1596 1597 1597 1597 1595 1594 1592 1591 1589 1587 1584 1582 1579 1577 1575 1573 1570 1568 1565 1562 1561
1533 1537 1537 1537 1537 1542 1539 1545 1535 1547 1554 1558 1565 1569 1572 1576 1579 1582 1584 1586 1588 1588 1589 1590 1592 1592 1593 1594 1594 1595 1595 1594 1593 1593 1591 1590 1588 1586 1583 1581 1579 1577 1575 1572 1570 1567 1564 1562 1560
1538 1539 1540 1539 1538 1547 1532 1541 1531 1543 1544 1552 1560 1565 1570 1574 1578 1580 1583 1585 1587 1588 1588 1590 1591 1591 1592 1593 1593 1594 1594 1594 1593 1592 1591 1590 1588 1584 1582 1581 1580 1577 1575 1572 1569 1566 1563 1561 1559
1535 1536 1546 1549 1549 1542 1539 1544 1528 1538 1542 1544 1551 1559 1566 1571 1576 1579 1581 1583 1584 1585 1586 1588 1588 1590 1591 1591 1592 1592 1592 1592 1591 1591 1590 1589 1586 1583 1581 1579 1578 1575 1573 1571 1568 1564 1562 1559 1557
1531 1531 1539 1554 1545 1537 1541 1541 1531 1542 1543 1544 1552 1558 1564 1569 1573 1575 1579 1581 1582 1583 1584 1586 1587 1588 1589 1590 1590 1590 1590 1590 1590 1589 1588 1585 1583 1580 1578 1577 1575 1573 1571 1568 1566 1564 1561 1558 1555
1528 1536 1528 1541 1547 1546 1529 1535 1538 1543 1545 1547 1551 1556 1561 1566 1569 1572 1574 1576 1578 1579 1580 1581 1583 1584 1586 1587 1587 1587 1587 1587 1586 1585 1584 1582 1580 1578 1576 1574 1572 1570 1568 1566 1564 1562 1559 1556 1553
1526 1524 1539 1537 1553 1550 1537 1537 1529 1538 1541 1546 1548 1551 1556 1561 1565 1567 1569 1572 1575 1576 1577 1579 1581 1582 1583 1584 1585 1585 1585 1584 1583 1582 1581 1580 1578 1575 1573 1571 1569 1567 1565 1563 1561 1559 1557 1554 1551
1530 1529 1530 1529 1537 1547 1549 1533 1525 1528 1533 1539 1543 1548 1552 1557 1561 1564 1566 1567 1570 1572 1574 1576 1578 1579 1580 1581 1582 1582 1582 1581 1581 1580 1578 1577 1575 1573 1571 1569 1567 1565 1563 1560 1558 1556 1553 1550 1548
1523 1521 1525 1537 1543 1545 1547 1544 1529 1532 1533 1536 1540 1545 1549 1553 1557 1559 1561 1563 1564 1567 1569 1571 1573 1575 1576 1577 1578 1579 1579 1578 1578 1577 1576 1574 1572 1570 1568 1566 1564 1562 1560 1558 1556 1553 1550 1547 1544